STARLINK-32851 (62810 NORAD) Tracking and Keplerian Element Data

This shows tracking and keplerian element data for the satellite.

Feedback or suggestion? Click here.




ElementValue
Catalog62810
NameSTARLINK-32851
Epoch Orbit5100
Epoch Day354.2302357
Epoch Year2025
RAAN318.6231
Inclination53.1628
Eccentricity0.0001618
Argument of Perigee53.303
Mean Anonmoly306.8119
Mean Motion15.30199468
Decay Rate0.00022396
L11 62810U 25018E 25354.23023570 .00022396 00000+0 76601-3 0 9998
L22 62810 53.1628 318.6231 0001618 53.3030 306.8119 15.30199468 51008



Live tracking and technical data element details for STARLINK-32851 (NORAD 62810). STARLINK-32851 can be tracked NOW for your location showing map with azimuth and elevation plus other details from your city location.







IsCatalogInMostPopularTable: catalog: 62810, numindb: 322
Update: records affected: 1



GetName: 62810 STARLINK-32851

Hit Count: updated at: Thu, 16 Apr 2026 04:42:33 GMT